Tracking 30995 objects as of 5-Jul-2025
HD Live streaming from Space Station
objects crossing your sky now

DELTA 1 DEB

Track DELTA 1 DEB now!
10-day predictions


NORAD ID: 7933
Int'l Code: 1972-058CB
Perigee: 610.7 km
Apogee: 1,025.1 km
Inclination: 99.0 °
Period: 101.1 minutes
Semi major axis: 7188 km
RCS: 0.0774 m2 (small)
Launch date: July 23, 1972
Source: United States (US)
Launch site: AIR FORCE WESTERN TEST RANGE (AFWTR)

Note: This is SATELLITE DEBRIS
Your satellite tracking list
Your tracking list is empty




NASA's NSSDC Master Catalog

Two Line Element Set (TLE):
1 07933U 72058CB  25186.56345047  .00001742  00000-0  50420-3 0  9998
2 07933  99.0014 204.5130 0288215  78.5174 284.8217 14.24322656546721
Source of the keplerian elements: AFSPC